| time (UTC) | temp F | wind direction | speed MPH | gust MPH | rain 1hr in | rain 24hr in | rain mn in | humidity % | barometer mb |
| 20260504194558 | 74 | 234 | 1.0 | 10.0 | 0.00 | 0.00 | 0.00 | 48 | 1004.2 |
| 20260504193055 | 74 | 244 | 0.0 | 4.0 | 0.00 | 0.00 | 0.00 | 54 | 1004.3 |
| 20260504191549 | 73 | 218 | 0.0 | 8.0 | 0.00 | 0.00 | 0.00 | 51 | 1004.7 |
| 20260504190047 | 73 | 210 | 0.0 | 5.0 | 0.00 | 0.00 | 0.00 | 51 | 1004.8 |
| 20260504184544 | 73 | 126 | 1.0 | 7.0 | 0.00 | 0.00 | 0.00 | 50 | 1005.2 |
| 20260504183044 | 73 | 271 | 1.0 | 6.0 | 0.00 | 0.00 | 0.00 | 47 | 1005.2 |
| 20260504181546 | 72 | 220 | 2.0 | 8.0 | 0.00 | 0.00 | 0.00 | 48 | 1005.3 |
| 20260504180048 | 72 | 211 | 0.0 | 6.0 | 0.00 | 0.00 | 0.00 | 53 | 1005.5 |
| 20260504174538 | 72 | 217 | 0.0 | 4.0 | 0.00 | 0.00 | 0.00 | 52 | 1005.6 |
| 20260504173036 | 71 | 234 | 1.0 | 12.0 | 0.00 | 0.00 | 0.00 | 50 | 1005.8 |
| 20260504171535 | 71 | 340 | 0.0 | 7.0 | 0.00 | 0.00 | 0.00 | 51 | 1006.0 |
| 20260504081516 | 50 | 246 | 0.0 | 2.0 | 0.00 | 0.00 | 0.00 | 66 | 1008.7 |
| 20260504044552 | 50 | 220 | 0.0 | 3.0 | 0.00 | 0.00 | 0.00 | 66 | 1011.4 |
| 20260504043052 | 51 | 291 | 0.0 | 1.0 | 0.00 | 0.00 | 0.00 | 66 | 1011.6 |
| 20260504041549 | 51 | 11 | 0.0 | 0.0 | 0.00 | 0.00 | 0.00 | 66 | 1011.7 |
| 20260504040104 | 52 | 290 | 0.0 | 0.0 | 0.00 | 0.00 | 0.00 | 64 | 1011.9 |
| 20260504034545 | 52 | 246 | 0.0 | 0.0 | 0.00 | 0.00 | 0.00 | 65 | 1011.9 |
| 20260504033043 | 52 | 246 | 0.0 | 0.0 | 0.00 | 0.00 | 0.00 | 65 | 1012.1 |
| 20260504031543 | 52 | 269 | 0.0 | 0.0 | 0.00 | 0.00 | 0.00 | 66 | 1012.3 |
| 20260504030043 | 52 | 301 | 0.0 | 0.0 | 0.00 | 0.00 | 0.00 | 64 | 1012.5 |
| 20260504024542 | 52 | 244 | 0.0 | 0.0 | 0.00 | 0.00 | 0.00 | 64 | 1012.5 |
| 20260504023043 | 52 | 241 | 0.0 | 7.0 | 0.00 | 0.00 | 0.00 | 64 | 1012.7 |
| 20260504021542 | 52 | 191 | 0.0 | 4.0 | 0.00 | 0.00 | 0.00 | 62 | 1012.8 |
| 20260504020041 | 52 | 197 | 1.0 | 7.0 | 0.00 | 0.00 | 0.00 | 61 | 1012.9 |
| 20260504014551 | 53 | 218 | 0.0 | 8.0 | 0.00 | 0.00 | 0.00 | 57 | 1012.7 |
| 20260504013040 | 53 | 248 | 0.0 | 7.0 | 0.00 | 0.00 | 0.00 | 53 | 1012.6 |
| 20260504011541 | 54 | 313 | 0.0 | 0.0 | 0.00 | 0.00 | 0.00 | 51 | 1012.2 |
| 20260504010044 | 55 | 298 | 0.0 | 1.0 | 0.00 | 0.00 | 0.00 | 52 | 1012.1 |
| 20260504004544 | 55 | 290 | 0.0 | 1.0 | 0.00 | 0.00 | 0.00 | 51 | 1012.1 |
| 20260504003037 | 56 | 300 | 0.0 | 6.0 | 0.00 | 0.00 | 0.00 | 49 | 1012.0 |
| 20260504001542 | 57 | 210 | 0.0 | 4.0 | 0.00 | 0.00 | 0.00 | 45 | 1012.0 |
| 20260504000037 | 57 | 234 | 0.0 | 7.0 | 0.00 | 0.00 | 0.00 | 45 | 1012.1 |
| 20260503234536 | 58 | 272 | 1.0 | 6.0 | 0.00 | 0.00 | 0.00 | 43 | 1012.1 |
| 20260503233035 | 59 | 294 | 0.0 | 7.0 | 0.00 | 0.00 | 0.00 | 45 | 1012.1 |
| 20260503231534 | 59 | 127 | 0.0 | 11.0 | 0.00 | 0.00 | 0.00 | 43 | 1012.2 |
| 20260503230038 | 59 | 286 | 3.0 | 17.0 | 0.00 | 0.00 | 0.00 | 44 | 1012.3 |
| 20260503224533 | 59 | 360 | 0.0 | 16.0 | 0.00 | 0.00 | 0.00 | 44 | 1012.4 |
| 20260503223033 | 60 | 261 | 1.0 | 7.0 | 0.00 | 0.00 | 0.00 | 42 | 1012.5 |
| 20260503221533 | 60 | 206 | 0.0 | 14.0 | 0.00 | 0.00 | 0.00 | 42 | 1012.4 |
| 20260503220032 | 61 | 241 | 2.0 | 13.0 | 0.00 | 0.00 | 0.00 | 42 | 1012.6 |
| 20260503214531 | 61 | 229 | 2.0 | 15.0 | 0.00 | 0.00 | 0.00 | 42 | 1012.5 |
| 20260503213029 | 60 | 315 | 0.0 | 8.0 | 0.00 | 0.00 | 0.00 | 45 | 1012.7 |
| 20260503211529 | 60 | 216 | 0.0 | 7.0 | 0.00 | 0.00 | 0.00 | 43 | 1012.7 |
| 20260503210029 | 62 | 222 | 1.0 | 13.0 | 0.00 | 0.00 | 0.00 | 40 | 1012.7 |
| 20260503204530 | 62 | 284 | 1.0 | 16.0 | 0.00 | 0.00 | 0.00 | 43 | 1012.6 |
| 20260503203027 | 62 | 205 | 0.0 | 10.0 | 0.00 | 0.00 | 0.00 | 41 | 1012.9 |
| 20260503201525 | 62 | 238 | 2.0 | 17.0 | 0.00 | 0.00 | 0.00 | 40 | 1012.9 |
| 20260503200024 | 61 | 226 | 3.0 | 13.0 | 0.00 | 0.00 | 0.00 | 43 | 1013.1 |